Overview Statistics Trail Chart Weather Telemetry Raw packets
 

This is the latest recevied weather packets stored in our database for station/object IONIA-WX. If no packets are shown the sender has not sent any weather packets the latest 10 day(s).

<< 11 12 13 14 15 16 17 >>
Time Temp. Humidity Pressure Rain* Wind** Luminosity Snow
1788352222 24.44° C 91% 983.9 hPa 0 mm - - -
1788351322 23.89° C 91% 983.9 hPa 0 mm - - -
1788350425 -17.78° C 100% - 0 mm - - -
1788349524 22.78° C 90% 984.2 hPa 0 mm - - -
1788348617 22.78° C 90% 984.2 hPa 0 mm - - -
1788347717 22.78° C 90% 984.2 hPa 0 mm - - -
1788346818 22.78° C 90% 984.2 hPa 0 mm - - -
1788345918 22.78° C 91% 984.4 hPa 0 mm - - -
1788345017 23.33° C 91% 984.5 hPa 0 mm - - -
1788344116 23.33° C 91% 984.5 hPa 0 mm - - -
1788343222 23.33° C 91% 984.5 hPa 0 mm - - -
1788342317 23.89° C 89% 984 hPa 0 mm - - -
1788340515 23.33° C 89% 984 hPa 0 mm - - -
1788339619 23.33° C 89% 984 hPa 0 mm - - -
1788338717 23.33° C 92% 984.2 hPa 0 mm - - -
1788337818 23.33° C 92% 984.2 hPa 0 mm - - -
1788336918 22.78° C 92% 984.1 hPa 0 mm - - -
1788336016 -17.78° C 100% - 0 mm - - -
1788335116 22.78° C 87% 983.2 hPa 0 mm - - -
1788334214 22.78° C 87% 983.2 hPa 0 mm - - -
1788333317 22.78° C 87% 983.1 hPa 0 mm - - -
1788332420 22.78° C 88% 983.8 hPa 0 mm - - -
1788331517 22.78° C 86% 983.6 hPa 0 mm - - -
1788330617 22.78° C 86% 983.6 hPa 0 mm - - -
1788329717 23.33° C 86% 983.6 hPa 0 mm - - -

* Rain latest hour (hover to see other rain measurements)
** Current wind speed in m/s (hover to see current wind gust speed)